BEIDOU-3 M18 (C37)

Last updated on Sun Jul 26 2026 00:03:31 GMT+0000 (Coordinated Universal Time)

1 43707U 18093B 26205.76107772 .00000057 00000+0 00000+0 0 9994 2 43707 54.1708 181.0140 0008099 324.1944 35.7301 1.86226797 52235
UTC large
Height (km)
Speed (km/s)
/
Latitude / Longitude
Inclination (degrees)
Orbital Period (minutes)
Azimuth
Elevation
Range (km)
Doppler Factor

Next 0 passes for location: London (51.5072 / 0.1276)

No passes found over London.
BEIDOU-3 M18 (C37)